Flag for Germany Weather past 2 weeks in Cloppenburg, Lower Saxony, Germany

Now
66 °F

Mild.


Feels Like: 66 °F
Forecast: 52 / 64 °F
Wind: 7 mph from Southwest

Location: Meppen-Mil

Current Time: Aug 30, 2014 at 6:13:32 PM

Latest Report: Aug 30, 2014 at 5:20 PM


Visibility: 4 mi

Pressure: 29.92 "Hg

Humidity: 78%

Dew point: 59 °F

Location of CloppenburgLocation

Historic Weather in Cloppenburg — Graph

°F

Cloppenburg temperature yesterday

Maximum temperature yesterday: 70 °F (at 2:20 PM)
Minimum temperature yesterday: 59 °F (at 7:20 AM)
Average temperature yesterday: 64 °F

Past Weeks' High & Low Weather Summary

 TemperatureHumidityPressure
High73 °F (Aug 28, 4:20 PM)100% (Aug 16, 12:20 AM)30.04 "Hg (Aug 16, 12:20 AM)
Low43 °F (Aug 27, 6:20 AM)43% (Aug 26, 5:20 PM)29.53 "Hg (Aug 18, 8:20 AM)
Average57 °F78%29.89 "Hg
* Reported Aug 15 4:20 PM — Aug 30 4:20 PM, Cloppenburg, Weather by CustomWeather, © 2014

Note: Actual official high and low records may vary slightly from our data, if they occured in-between our weather recording intervals... More about our weather records

Advertising

Cloppenburg weather history for previous 24 hours

 ConditionsComfort  
Time TempWeatherWind HumidityBarometerVisibility
4:20 PM
Aug 30
66 °FMild.8 mph73%29.92 "Hg4 mi
3:20 PM66 °FMild.12 mph78%29.95 "Hg4 mi
2:20 PM64 °FMild.8 mph83%29.95 "Hg4 mi
1:20 PM63 °FMild.7 mph88%29.95 "Hg4 mi
12:20 PM63 °FMild.8 mph83%29.95 "Hg4 mi
11:20 AM63 °FMild.9 mph83%29.95 "Hg4 mi
10:20 AM63 °FMild.8 mph83%29.95 "Hg4 mi
9:20 AM61 °FCool.8 mph83%29.95 "Hg4 mi
8:20 AM61 °FCool.7 mph83%29.92 "Hg2 mi
7:20 AM61 °FCool.7 mph77%29.92 "Hg4 mi
6:20 AM59 °FCool.6 mph82%29.92 "Hg4 mi
5:20 AM59 °FCool.5 mph82%29.92 "Hg4 mi
4:20 AM59 °FCool.5 mph82%29.95 "Hg4 mi
3:20 AM59 °FCool.5 mph88%29.95 "Hg4 mi
2:20 AM59 °FCool.3 mph88%29.95 "Hg4 mi
1:20 AM61 °FCool.3 mph83%29.95 "Hg4 mi
12:20 AM61 °FCool.3 mph83%29.98 "Hg4 mi
11:20 PM
Aug 29
59 °FCool.2 mph82%29.98 "Hg4 mi
10:20 PM61 °FCool.2 mph77%29.98 "Hg4 mi
8:20 PM64 °FMild.3 mph64%29.95 "Hg4 mi
7:20 PM66 °FMild.5 mph60%29.95 "Hg5 mi
6:20 PM68 °FMild.5 mph56%29.95 "Hg5 mi
Weather by CustomWeather, © 2014

See weather overviewHow to use our weather pages